Find Starlink 34566

NORAD ID: 64765 Int'l Des: 2025-147 Owner: SPXS Country: US Constellation: starlink operational
LEOCIRCULAR

Live-Position

3D-Globus wird geladen...

Über Starlink 34566

Beschreibung wird geladen...

Nächste Überflüge

Passes for default location (London). Set your location on the main map for personalized predictions.

Höhenverlauf

Loading altitude history...

Zweizeiliger Elementsatz

1 64765U 25147L 26106.18239048 .00014498 00000-0 50058-3 0 9994
2 64765 53.1582 68.4829 0000894 76.9252 283.1849 15.30205997 44490
Epoch: 16. Apr. 2026 • Age: 30 hours

Aktueller Status

Höhe 484.7 km
Geschwindigkeit 7.62 km/s
Subsatellitenpunkt -30.40°S, 41.42°E
Startdatum 8. Juli 2025
Alter 0.7 years
Typ internet

Technische Details

Klassifizierung Payload
Masse 575.00 kg
Trockenmasse 530.00 kg
Gesamtmasse 575.00 kg
Länge 0.30 m
Durchmesser 4.10 m
Spannweite 29.00 m
Form Box + pan
Hersteller SPXS
Bus-Typ Starlink V2MO
Phasenstatus In Orbit
Besitzer/Staat SPXS/US

Most Searched